Tel Aviv, Israel

7:09 AM IDT on August 20, 2017 (GMT +0300)
Ben Gurion

Weather History for LLBG - January, 2014

Change the Weather History Date:

Wednesday, January 1, 2014

  Actual Average Record
Temperature  
Mean Temperature 54 °F -  
Max Temperature 64 °F 61 °F 77 °F (2000)
Min Temperature 43 °F 47 °F 43 °F (2014)
Degree Days  
Heating Degree Days 12    
Growing Degree Days 4 (Base 50)    
Moisture  
Dew Point 47 °F    
Average Humidity 75    
Maximum Humidity 88    
Minimum Humidity 49    
Precipitation  
Precipitation 0.00 in - - ()
Sea Level Pressure  
Sea Level Pressure 30.13 in    
Wind  
Wind Speed 3 mph ()    
Max Wind Speed 7 mph    
Max Gust Speed -    
Visibility 5.4 miles    
Events      
Averages and records for this station are not official NWS values.
T = Trace of Precipitation, MM = Missing Value Source: Averaged Metar Reports

Daily Weather History Graph

Daily Weather History Graph

Search for Another Location

Airport or City:

Trip Planner

Search our weather history database for the weather conditions in past years. The results will help you decide how hot, cold, wet, or windy it might be!

Date:

Astronomy

Jan. 01, 2014 Rise Set
Actual Time 6:40 AM IST 4:46 PM IST
Civil Twilight 6:14 AM IST 5:13 PM IST
Nautical Twilight 5:43 AM IST 5:44 PM IST
Astronomical Twilight 5:13 AM IST 6:14 PM IST
Moon 6:15 AM IST (1/1) 5:03 PM IST (1/1)
Length of Visible Light 10h 59m
Length of Day
10h 06m
Waning Crescent, 0% of the Moon is Illuminated
Jan 1
Waning Crescent
Jan 1
New
Jan 8
First Quarter
Jan 16
Full
Jan 24
Last Quarter

Hourly Weather History & Observations

Time (IST) Temp. Windchill Dew Point Humidity Pressure Visibility Wind Dir Wind Speed Gust Speed Precip Events Conditions
12:20 AM 48.2 °F - 44.6 °F 87% 30.12 in 5.0 mi Variable 1.2 mph - N/A   Unknown
12:50 AM 48.2 °F - 44.6 °F 87% 30.12 in 5.0 mi Variable 1.2 mph - N/A   Unknown
1:20 AM 48.2 °F - 44.6 °F 87% 30.12 in 5.0 mi Variable 3.5 mph - N/A   Unknown
1:50 AM 48.2 °F - 44.6 °F 87% 30.12 in 5.0 mi ESE 4.6 mph - N/A   Unknown
2:00 AM 46 °F - 43 °F 84% 30.13 in 4 mi 2.3 mph - -   Mist
2:20 AM 46.4 °F - 42.8 °F 87% 30.12 in 4.3 mi Variable 2.3 mph - N/A   Unknown
2:50 AM 46.4 °F - 42.8 °F 87% 30.12 in 4.3 mi Variable 2.3 mph - N/A   Unknown
3:20 AM 46.4 °F - 42.8 °F 87% 30.12 in 4.3 mi Variable 2.3 mph - N/A   Unknown
3:50 AM 46.4 °F - 42.8 °F 87% 30.12 in 4.3 mi Variable 2.3 mph - N/A   Unknown
4:20 AM 44.6 °F - 41.0 °F 87% 30.12 in 4.3 mi Variable 2.3 mph - N/A   Unknown
4:50 AM 44.6 °F 43.1 °F 41.0 °F 87% 30.12 in 4.3 mi Variable 3.5 mph - N/A   Unknown
5:00 AM 45 °F - 42 °F 83% 30.13 in 4 mi 3.5 mph - -   Mist
5:20 AM 44.6 °F 43.1 °F 41.0 °F 87% 30.12 in 4.3 mi Variable 3.5 mph - N/A   Unknown
5:50 AM 44.6 °F 43.1 °F 41.0 °F 87% 30.12 in 4.3 mi Variable 3.5 mph - N/A   Unknown
6:20 AM 44.6 °F - 41.0 °F 87% 30.12 in 5.0 mi Variable 1.2 mph - N/A   Unknown
6:50 AM 46.4 °F - 42.8 °F 87% 30.12 in 5.0 mi Variable 2.3 mph - N/A   Unknown
7:20 AM 48.2 °F - 44.6 °F 87% 30.12 in 5.0 mi Variable 1.2 mph - N/A   Unknown
7:50 AM 48.2 °F - 44.6 °F 87% 30.15 in 5.0 mi Variable 2.3 mph - N/A   Unknown
8:00 AM 47 °F - 44 °F 85% 30.15 in 5 mi 2.3 mph - -   Mist
8:20 AM 51.8 °F - 44.6 °F 76% 30.15 in 5.0 mi Variable 1.2 mph - N/A   Unknown
8:50 AM 55.4 °F - 44.6 °F 67% 30.15 in - Variable 1.2 mph - N/A   Clear
9:20 AM 59.0 °F - 46.4 °F 63% 30.15 in - Variable 1.2 mph - N/A   Clear
9:50 AM 59.0 °F - 48.2 °F 67% 30.15 in - Variable 1.2 mph - N/A   Clear
10:20 AM 60.8 °F - 48.2 °F 63% 30.15 in - Variable 2.3 mph - N/A   Clear
10:50 AM 62.6 °F - 48.2 °F 59% 30.15 in - WSW 4.6 mph - N/A   Clear
11:00 AM 62 °F - 47 °F 49% 30.17 in 6 mi WSW 4.6 mph - -   Clear
11:20 AM 62.6 °F - 48.2 °F 59% 30.15 in 6.2 mi WNW 4.6 mph - N/A   Partly Cloudy
11:50 AM 62.6 °F - 48.2 °F 59% 30.12 in 6.2 mi Variable 3.5 mph - N/A   Partly Cloudy
12:20 PM 62.6 °F - 46.4 °F 55% 30.12 in 6.2 mi West 4.6 mph - N/A   Partly Cloudy
12:50 PM 64.4 °F - 48.2 °F 56% 30.12 in 6.2 mi Variable 3.5 mph - N/A   Partly Cloudy
1:20 PM 62.6 °F - 48.2 °F 59% 30.09 in 6.2 mi Variable 3.5 mph - N/A   Scattered Clouds
1:50 PM 62.6 °F - 48.2 °F 59% 30.09 in 6.2 mi NW 4.6 mph - N/A   Partly Cloudy
2:00 PM 63 °F - 49 °F 49% 30.12 in 6 mi NW 4.6 mph - -   Partly Cloudy
2:20 PM 62.6 °F - 48.2 °F 59% 30.09 in 6.2 mi NW 5.8 mph - N/A   Partly Cloudy
2:50 PM 64.4 °F - 50.0 °F 59% 30.09 in 6.2 mi Variable 3.5 mph - N/A   Partly Cloudy
3:20 PM 64.4 °F - 50.0 °F 59% 30.09 in - NNW 5.8 mph - N/A   Clear
3:50 PM 62.6 °F - 48.2 °F 59% 30.09 in - NNW 5.8 mph - N/A   Clear
4:20 PM 62.6 °F - 48.2 °F 59% 30.09 in - NW 5.8 mph - N/A   Clear
4:50 PM 60.8 °F - 50.0 °F 68% 30.12 in - WNW 6.9 mph - N/A   Clear
5:00 PM 60 °F - 51 °F 63% 30.12 in 6 mi WNW 6.9 mph - -   Clear
5:20 PM 59.0 °F - 50.0 °F 72% 30.12 in - NW 5.8 mph - N/A   Clear
5:50 PM 59.0 °F - 50.0 °F 72% 30.12 in 6.2 mi NW 4.6 mph - N/A   Partly Cloudy
6:20 PM 57.2 °F - 50.0 °F 77% 30.15 in 6.2 mi Variable 2.3 mph - N/A   Partly Cloudy
6:50 PM 57.2 °F - 50.0 °F 77% 30.15 in 6.2 mi ESE 4.6 mph - N/A   Scattered Clouds
7:20 PM 57.2 °F - 50.0 °F 77% 30.15 in 6.2 mi Variable 3.5 mph - N/A   Partly Cloudy
7:50 PM 57.2 °F - 50.0 °F 77% 30.15 in 6.2 mi Variable 2.3 mph - N/A   Partly Cloudy
8:00 PM 57 °F - 50 °F 72% 30.18 in 6 mi 2.3 mph - -   Scattered Clouds
8:20 PM 57.2 °F - 50.0 °F 77% 30.18 in 6.2 mi Variable 3.5 mph - N/A   Partly Cloudy
8:50 PM 55.4 °F - 50.0 °F 82% 30.18 in - Variable 3.5 mph - N/A   Clear
9:20 PM 51.8 °F - 48.2 °F 88% 30.18 in - Variable 3.5 mph - N/A   Clear
9:50 PM 53.6 °F - 48.2 °F 82% 30.15 in - Variable 3.5 mph - N/A   Clear
10:20 PM 51.8 °F - 48.2 °F 88% 30.15 in - Calm Calm - N/A   Clear
10:50 PM 53.6 °F - 48.2 °F 82% 30.15 in - Variable 3.5 mph - N/A   Clear
11:00 PM 52 °F - 48 °F 82% 30.17 in 6 mi 3.5 mph - -  
11:20 PM 51.8 °F - 46.4 °F 82% 30.15 in - Variable 3.5 mph - N/A   Clear
11:50 PM 51.8 °F - 46.4 °F 82% 30.15 in - Variable 2.3 mph - N/A   Clear